{"data":{"norad_id":64088,"intl_designator":"2025-108B","name":"2025-108B","alt_names":[],"object_type":"PAYLOAD","status":"ACTIVE","operator":null,"country":"PRC","launch_date":"2025-05-21","launch_site_code":"JSC","launch_vehicle":null,"mission":null,"orbit_class":"UNKNOWN","rcs_meters":null,"size_class":null,"mass_kg":null,"dimensions":null,"purposes":[],"wikipedia_slug":null,"has_3d_model":false,"image_url":null,"decayed_at":null,"tle_current":{"epoch":"2026-05-25T04:31:45.204096Z","epoch_age_seconds":52626,"freshness":"FRESH","line1":"1 64088U 25108B   26145.18871764  .00008123  00000+0  40146-3 0  9993","line2":"2 64088  97.4728 221.2689 0009591  94.7393 265.4936 15.18068917 55870","mean_motion":15.18068917,"eccentricity":0.0009591,"inclination_deg":97.4728,"raan_deg":221.2689,"arg_perigee_deg":94.7393,"mean_anomaly_deg":265.4936,"bstar":0.00040146,"rev_number":5587,"period_min":94.857353567697,"perigee_km":505.06926918112,"apogee_km":518.28531095232,"semimajor_km":6889.8142900667,"source":"CELESTRAK","updated_at":"2026-05-25T13:38:04.235050Z"}}}